Location: Churchill Northern Studies Centre
(58.7378°N, 93.8201°W)
Time: 04:50:15
(UTC-06:00)

Vanguard 1 - Visible Passes

Search period start: 17 January 2018 00:00
Search period end: 27 January 2018 00:00
Orbit: 649 x 3834 km, 34.3° (Epoch: 16 January)

Date Brightness Start Highest point End Pass type
(mag) Time Alt. Az. Time Alt. Az. Time Alt. Az.
17 Jan 13.1 02:46:03 23° SSE 02:46:03 23° SSE 02:56:17 10° SE visible
17 Jan 13.1 04:58:46 21° SW 05:03:55 24° SSW 05:18:26 10° SSE visible
17 Jan 13.6 07:17:05 10° WSW 07:24:45 14° SW 07:33:26 10° SSW visible
18 Jan 13.1 03:05:52 24° SSE 03:05:52 24° SSE 03:16:44 10° SE visible
18 Jan 13.1 05:18:35 17° SW 05:24:24 21° SSW 05:37:41 10° SSE visible
19 Jan 13.7 01:13:00 10° ESE 01:13:00 10° ESE 01:13:04 10° ESE visible
19 Jan 13.1 03:25:43 23° S 03:25:43 23° S 03:36:57 10° SE visible
19 Jan 13.2 05:38:26 14° SW 05:44:52 18° SSW 05:56:21 10° S visible
20 Jan 13.6 01:32:51 12° SE 01:32:51 12° SE 01:33:59 10° SE visible
20 Jan 13.1 03:45:35 22° S 03:45:35 22° S 03:56:52 10° SE visible
20 Jan 13.3 05:58:17 10° SW 06:05:18 15° SSW 06:14:05 10° S visible
21 Jan 13.5 01:52:45 13° SE 01:52:45 13° SE 01:54:38 10° SE visible
21 Jan 13.1 04:05:28 20° S 04:05:28 20° S 04:16:25 10° SSE visible
21 Jan 13.5 06:22:15 10° SW 06:25:41 11° SW 06:29:23 10° SSW visible
22 Jan 13.5 02:12:39 13° SE 02:12:39 13° SE 02:15:02 10° SE visible
22 Jan 13.2 04:25:23 17° SSW 04:25:44 17° SSW 04:35:27 10° SSE visible
23 Jan 13.5 02:32:35 13° SSE 02:32:35 13° SSE 02:35:09 10° SE visible
23 Jan 13.3 04:45:19 14° SSW 04:46:14 14° SSW 04:53:39 10° S visible
24 Jan 13.4 02:52:33 13° SSE 02:52:33 13° SSE 02:54:56 10° SSE visible
24 Jan 13.4 05:05:16 11° SSW 05:06:43 11° SSW 05:09:46 10° SSW visible
25 Jan 13.5 03:12:32 12° SSE 03:12:32 12° SSE 03:14:12 10° SSE visible
26 Jan 13.5 03:32:33 10° S 03:32:33 10° S 03:32:38 10° S visible
